Torna al catalogo

SL-16 DEB

AttivoLEO
NORAD 24300·DEBRIS·🇷🇺 Russia

Lanciato Sep 4, 1996 da Baikonur Cosmodrome

Loading…

Prossimi Passaggi (prossime 24 ore)

TLE

AggiornatoSource: Space-Track

Epoca: Sep 14, 2026, 13:44 UTC

1 24300U 96051D   26257.57255855  .00000065  00000-0  98978-4 0  9990
2 24300  71.0270 296.3649 0196799 318.1095 115.1400 13.74799510505575

Traccia SL-16 DEB in tempo reale con AllMySat

Download on the App Store